When you browse on this site, cookies collect data to enhance your experience and personalize the content and advertising you see.
Visit our Privacy Policy to learn more. By continuing to use the site, you agree to this use of cookies and data.
  • In Austria
  • List of Countries
  • For 7 days
  • Water Temperature
  • Satellite Maps
  • Weather Map
  • News
  • Weather Widgets
  • user-avatar
    Login

    Hourly Weather Townsville

    Today, 22 May, Wednesday

    Time Temperature Precipitation Wind Pressure Humidity
    00:00 +22°C° 0 mm 6 mps 758 mmHg 83%
    01:00 +21°C° 0 mm 6 mps 758 mmHg 85%
    02:00 +21°C° 0 mm 6 mps 758 mmHg 85%
    03:00 +21°C° 0 mm 6 mps 758 mmHg 86%
    04:00 +21°C° 0 mm 6 mps 758 mmHg 86%
    05:00 +21°C° 0 mm 6 mps 758 mmHg 87%
    06:00 +21°C° 0 mm 6 mps 758 mmHg 87%
    07:00 +20°C° 0 mm 5 mps 758 mmHg 87%
    08:00 +22°C° 0 mm 5 mps 758 mmHg 81%
    09:00 +24°C° 0 mm 6 mps 759 mmHg 74%
    10:00 +26°C° 0 mm 5 mps 759 mmHg 67%
    11:00 +27°C° 0 mm 5 mps 758 mmHg 64%
    12:00 +28°C° 0 mm 5 mps 758 mmHg 61%
    13:00 +29°C° 0 mm 5 mps 757 mmHg 58%
    14:00 +28°C° 0.1 mm 6 mps 757 mmHg 60%
    15:00 +28°C° 0.1 mm 6 mps 757 mmHg 63%
    16:00 +27°C° 0 mm 6 mps 757 mmHg 66%
    17:00 +26°C° 0 mm 6 mps 757 mmHg 71%
    18:00 +24°C° 0 mm 6 mps 757 mmHg 76%
    19:00 +23°C° 0 mm 6 mps 757 mmHg 81%
    20:00 +23°C° 0 mm 6 mps 758 mmHg 82%
    21:00 +22°C° 0 mm 6 mps 758 mmHg 83%
    22:00 +22°C° 0 mm 6 mps 758 mmHg 84%
    23:00 +22°C° 0 mm 6 mps 758 mmHg 84%

    Tomorrow, 23 May, Thursday

    Time Temperature Precipitation Wind Pressure Humidity
    00:00 +21°C° 0 mm 6 mps 758 mmHg 85%
    01:00 +21°C° 0 mm 6 mps 758 mmHg 86%
    02:00 +21°C° 0 mm 6 mps 758 mmHg 86%
    03:00 +21°C° 0 mm 6 mps 758 mmHg 86%
    04:00 +20°C° 0 mm 6 mps 757 mmHg 86%
    05:00 +20°C° 0 mm 6 mps 758 mmHg 86%
    06:00 +20°C° 0 mm 5 mps 758 mmHg 85%
    07:00 +20°C° 0 mm 5 mps 758 mmHg 85%
    08:00 +22°C° 0 mm 5 mps 758 mmHg 79%
    09:00 +23°C° 0 mm 5 mps 758 mmHg 72%
    10:00 +26°C° 0 mm 5 mps 759 mmHg 66%
    11:00 +27°C° 0 mm 5 mps 758 mmHg 62%
    12:00 +28°C° 0 mm 5 mps 758 mmHg 58%
    13:00 +29°C° 0 mm 5 mps 757 mmHg 54%
    14:00 +29°C° 0 mm 5 mps 757 mmHg 56%
    15:00 +28°C° 0 mm 5 mps 756 mmHg 58%
    16:00 +28°C° 0 mm 5 mps 756 mmHg 60%
    17:00 +26°C° 0 mm 5 mps 756 mmHg 67%
    18:00 +25°C° 0 mm 5 mps 756 mmHg 73%
    19:00 +23°C° 0 mm 5 mps 757 mmHg 80%
    20:00 +22°C° 0 mm 5 mps 757 mmHg 80%
    21:00 +22°C° 0 mm 5 mps 757 mmHg 80%
    22:00 +22°C° 0 mm 5 mps 758 mmHg 81%
    23:00 +21°C° 0 mm 5 mps 758 mmHg 82%

    Day after tomorrow, 24 May, Friday

    Time Temperature Precipitation Wind Pressure Humidity
    00:00 +21°C° 0 mm 5 mps 757 mmHg 83%
    01:00 +20°C° 0 mm 5 mps 757 mmHg 85%
    02:00 +20°C° 0 mm 5 mps 757 mmHg 85%
    03:00 +20°C° 0 mm 5 mps 757 mmHg 86%
    04:00 +20°C° 0 mm 5 mps 756 mmHg 87%
    05:00 +19°C° 0 mm 5 mps 756 mmHg 87%
    06:00 +19°C° 0 mm 5 mps 757 mmHg 87%
    07:00 +19°C° 0 mm 5 mps 757 mmHg 87%
    08:00 +21°C° 0 mm 5 mps 757 mmHg 80%
    09:00 +23°C° 0 mm 5 mps 757 mmHg 73%
    10:00 +26°C° 0 mm 5 mps 758 mmHg 67%
    11:00 +27°C° 0 mm 5 mps 757 mmHg 64%
    12:00 +27°C° 0 mm 5 mps 756 mmHg 60%
    13:00 +28°C° 0 mm 5 mps 756 mmHg 57%
    14:00 +28°C° 0.1 mm 6 mps 755 mmHg 60%
    15:00 +27°C° 0.1 mm 6 mps 755 mmHg 63%
    16:00 +27°C° 0.1 mm 6 mps 754 mmHg 66%
    17:00 +26°C° 0 mm 6 mps 755 mmHg 71%
    18:00 +25°C° 0 mm 5 mps 755 mmHg 77%
    19:00 +22°C° 0 mm 5 mps 756 mmHg 83%
    20:00 +22°C° 0 mm 5 mps 756 mmHg 84%
    21:00 +22°C° 0 mm 5 mps 756 mmHg 85%
    22:00 +22°C° 0 mm 5 mps 757 mmHg 86%
    23:00 +21°C° 0 mm 5 mps 757 mmHg 87%

    25 May, Saturday

    Time Temperature Precipitation Wind Pressure Humidity
    00:00 +21°C° 0 mm 5 mps 756 mmHg 89%
    01:00 +21°C° 0 mm 4 mps 756 mmHg 90%
    02:00 +21°C° 0.1 mm 4 mps 756 mmHg 90%
    03:00 +20°C° 0.1 mm 4 mps 755 mmHg 91%
    04:00 +20°C° 0.1 mm 4 mps 755 mmHg 91%
    05:00 +20°C° 0.1 mm 4 mps 755 mmHg 91%
    06:00 +20°C° 0.1 mm 4 mps 756 mmHg 91%
    07:00 +20°C° 0.1 mm 5 mps 756 mmHg 91%
    08:00 +22°C° 0.1 mm 5 mps 756 mmHg 83%
    09:00 +23°C° 0.1 mm 5 mps 756 mmHg 76%
    10:00 +26°C° 0.1 mm 5 mps 757 mmHg 69%
    11:00 +27°C° 0.1 mm 5 mps 756 mmHg 65%
    12:00 +28°C° 0.1 mm 5 mps 755 mmHg 61%
    13:00 +29°C° 0.1 mm 5 mps 755 mmHg 57%
    14:00 +28°C° 0 mm 5 mps 754 mmHg 58%
    15:00 +28°C° 0 mm 5 mps 754 mmHg 59%
    16:00 +28°C° 0 mm 5 mps 754 mmHg 60%
    17:00 +26°C° 0 mm 5 mps 754 mmHg 67%
    18:00 +25°C° 0 mm 4 mps 754 mmHg 75%
    19:00 +22°C° 0 mm 4 mps 755 mmHg 83%
    20:00 +22°C° 0 mm 4 mps 755 mmHg 85%
    21:00 +22°C° 0 mm 4 mps 756 mmHg 86%
    22:00 +21°C° 0 mm 4 mps 756 mmHg 88%
    23:00 +21°C° 0 mm 3 mps 756 mmHg 89%

    26 May, Sunday

    Time Temperature Precipitation Wind Pressure Humidity
    00:00 +21°C° 0 mm 3 mps 756 mmHg 90%
    01:00 +21°C° 0 mm 3 mps 755 mmHg 91%
    02:00 +20°C° 0 mm 3 mps 755 mmHg 92%
    03:00 +20°C° 0 mm 3 mps 755 mmHg 92%
    04:00 +20°C° 0 mm 3 mps 755 mmHg 93%
    05:00 +20°C° 0 mm 3 mps 755 mmHg 92%
    06:00 +20°C° 0 mm 3 mps 755 mmHg 92%
    07:00 +20°C° 0 mm 3 mps 756 mmHg 91%
    08:00 +22°C° 0 mm 3 mps 756 mmHg 82%
    09:00 +24°C° 0 mm 3 mps 756 mmHg 72%
    10:00 +26°C° 0 mm 3 mps 756 mmHg 62%
    11:00 +27°C° 0 mm 3 mps 756 mmHg 57%
    12:00 +28°C° 0 mm 3 mps 755 mmHg 53%
    13:00 +29°C° 0 mm 3 mps 754 mmHg 48%
    14:00 +29°C° 0 mm 4 mps 754 mmHg 51%
    15:00 +28°C° 0 mm 4 mps 754 mmHg 54%
    16:00 +28°C° 0 mm 4 mps 754 mmHg 57%
    17:00 +26°C° 0 mm 4 mps 754 mmHg 66%
    18:00 +25°C° 0 mm 3 mps 755 mmHg 74%
    19:00 +22°C° 0 mm 3 mps 755 mmHg 83%
    20:00 +22°C° 0 mm 3 mps 755 mmHg 84%
    21:00 +23°C° 0 mm 2 mps 756 mmHg 85%
    22:00 +23°C° 0 mm 2 mps 756 mmHg 86%
    23:00 +21°C° 0.1 mm 2 mps 756 mmHg 87%

    27 May, Monday

    Time Temperature Precipitation Wind Pressure Humidity
    00:00 +21°C° 0.1 mm 2 mps 755 mmHg 87%
    01:00 +21°C° 0.1 mm 2 mps 755 mmHg 88%
    02:00 +21°C° 0.1 mm 2 mps 755 mmHg 89%
    03:00 +21°C° 0.1 mm 2 mps 755 mmHg 90%
    04:00 +20°C° 0.1 mm 2 mps 755 mmHg 90%
    05:00 +20°C° 0 mm 2 mps 755 mmHg 90%
    06:00 +20°C° 0 mm 3 mps 756 mmHg 89%
    07:00 +20°C° 0 mm 3 mps 756 mmHg 88%
    08:00 +22°C° 0 mm 3 mps 756 mmHg 78%
    09:00 +25°C° 0 mm 3 mps 756 mmHg 68%
    10:00 +27°C° 0 mm 3 mps 756 mmHg 58%
    11:00 +28°C° 0 mm 3 mps 756 mmHg 54%
    12:00 +28°C° 0 mm 3 mps 755 mmHg 50%
    13:00 +29°C° 0 mm 3 mps 754 mmHg 46%
    14:00 +29°C° 0 mm 3 mps 754 mmHg 50%
    15:00 +28°C° 0 mm 4 mps 754 mmHg 53%
    16:00 +28°C° 0 mm 4 mps 753 mmHg 56%
    17:00 +26°C° 0 mm 3 mps 754 mmHg 64%
    18:00 +25°C° 0 mm 3 mps 754 mmHg 73%
    19:00 +23°C° 0 mm 2 mps 755 mmHg 81%
    20:00 +23°C° 0 mm 2 mps 755 mmHg 82%
    21:00 +23°C° 0 mm 2 mps 756 mmHg 83%
    22:00 +21°C° 0 mm 2 mps 756 mmHg 84%
    23:00 +21°C° 0 mm 2 mps 756 mmHg 86%
    Show more